TimeEST,TemperatureF,Dew PointF,Humidity,Sea Level PressureIn,VisibilityMPH,Wind Direction,Wind SpeedMPH,Gust SpeedMPH,PrecipitationIn,Events,Conditions,WindDirDegrees,DateUTC
12:53 AM,72.0,68.0,87,30.18,10.0,ESE,6.9,-,N/A,,Clear,110,2013-01-06 05:53:00
1:53 AM,73.0,68.0,84,30.16,10.0,ESE,6.9,-,N/A,,Scattered Clouds,120,2013-01-06 06:53:00
2:53 AM,73.0,69.1,87,30.14,10.0,ESE,5.8,-,N/A,,Scattered Clouds,110,2013-01-06 07:53:00
3:53 AM,73.9,70.0,87,30.12,10.0,SE,8.1,-,N/A,,Overcast,130,2013-01-06 08:53:00
4:53 AM,72.0,70.0,93,30.12,7.0,South,4.6,-,0.04,Rain,Light Rain,190,2013-01-06 09:53:00
5:53 AM,72.0,70.0,93,30.12,10.0,Calm,Calm,-,0.02,Rain,Light Rain,0,2013-01-06 10:53:00
6:53 AM,73.0,70.0,90,30.13,10.0,SE,4.6,-,0.01,,Mostly Cloudy,130,2013-01-06 11:53:00
7:53 AM,73.9,71.1,91,30.15,10.0,SE,9.2,-,N/A,,Mostly Cloudy,130,2013-01-06 12:53:00
8:53 AM,75.9,70.0,82,30.16,10.0,SE,9.2,-,N/A,,Mostly Cloudy,140,2013-01-06 13:53:00
9:53 AM,78.1,70.0,76,30.16,10.0,SE,11.5,17.3,N/A,,Scattered Clouds,140,2013-01-06 14:53:00
10:53 AM,79.0,71.1,77,30.15,10.0,SE,11.5,20.7,N/A,,Scattered Clouds,130,2013-01-06 15:53:00
11:53 AM,78.1,70.0,76,30.13,10.0,SE,9.2,-,N/A,,Mostly Cloudy,140,2013-01-06 16:53:00
12:53 PM,80.1,70.0,71,30.10,10.0,SSE,12.7,-,N/A,,Mostly Cloudy,150,2013-01-06 17:53:00
1:53 PM,79.0,69.1,72,30.08,10.0,SSE,13.8,21.9,N/A,,Scattered Clouds,150,2013-01-06 18:53:00
2:53 PM,79.0,70.0,74,30.07,10.0,SSE,13.8,18.4,N/A,,Mostly Cloudy,150,2013-01-06 19:53:00
3:53 PM,78.1,70.0,76,30.06,10.0,SE,15.0,-,N/A,,Mostly Cloudy,140,2013-01-06 20:53:00
4:53 PM,77.0,69.1,76,30.07,10.0,SSE,10.4,-,N/A,,Scattered Clouds,160,2013-01-06 21:53:00
5:53 PM,75.9,68.0,76,30.07,10.0,SSE,8.1,-,N/A,,Partly Cloudy,150,2013-01-06 22:53:00
6:53 PM,75.0,69.1,82,30.09,10.0,Calm,Calm,-,N/A,,Clear,0,2013-01-06 23:53:00
7:53 PM,73.9,69.1,85,30.11,10.0,Calm,Calm,-,N/A,,Clear,0,2013-01-07 00:53:00
8:53 PM,73.9,69.1,85,30.11,10.0,Calm,Calm,-,N/A,,Clear,0,2013-01-07 01:53:00
9:53 PM,73.0,69.1,87,30.12,10.0,Calm,Calm,-,N/A,,Clear,0,2013-01-07 02:53:00
10:53 PM,71.1,68.0,90,30.12,10.0,Calm,Calm,-,N/A,,Clear,0,2013-01-07 03:53:00
11:53 PM,70.0,68.0,93,30.12,10.0,Calm,Calm,-,N/A,,Clear,0,2013-01-07 04:53:00